Location: Ferchesar
(52.6477°N, 12.4298°E)
Time: 05:21:57
(UTC+01:00)

Transit 2A Rocket - Pass Details

Date: 12 December 2021
Orbit: 585 x 917 km, 66.7° (Epoch: 25 January)

Event Time Altitude Azimuth Distance (km) Brightness Sun altitude
Rises 05:06:49 0° 180° (S) 3,361 8.4 -26.7°
Reaches altitude 10° 05:09:28 10° 170° (S) 2,479 7.8 -26.3°
Maximum altitude 05:14:25 30° 111° (ESE) 1,546 7.1 -25.6°
Drops below altitude 10° 05:19:35 10° 53° (NE) 2,607 8.3 -24.8°
Sets 05:22:25 0° 44° (NE) 3,565 9.0 -24.4°
